(386256) = 2008 CR207 = 2006 TA56

Discovered at Kitt Peak on 2008-02-08 by Spacewatch.

Orbit

Orbit type: Main Belt

Note: WebGL enabled browser required.

epoch2023-09-13.0
epoch JD2460200.5
perihelion date2021-05-24.97343
perihelion JD2459359.47343
argument of perihelion (°)202.62337
ascending node (°)329.34671
inclination (°)6.01961
eccentricity0.0780464
perihelion distance (AU)2.0341145
Tisserand w.r.t. Jupiter3.6
ΔV w.r.t. Earth (km/sec)9.0
semimajor axis (AU)2.2063090
mean anomaly (°)252.93799
mean daily motion (°/day)0.30074910
aphelion distance (AU)2.379
period (years)3.28
P-vector [x]-0.98911385
P-vector [y]0.14588377
P-vector [z]0.01928012
Q-vector [x]-0.13709534
Q-vector [y]-0.86596459
Q-vector [z]-0.48094719
absolute magnitude17.85
phase slope0.15
uncertainty0
referenceMPEC 2024-A55
observations used231
oppositions13
arc length (days)7379
first opposition used2003
last opposition used2024
residual rms (arc-secs)0.78
perturbers coarse indicatorM-v
perturbers precise indicator003Ek
first observation date used2003-10-21.0
last observation date used2024-01-03.0
computer nameMPCLINUX
Minimum Orbit Intersection Distances (in AU)
for orbit epoch: 2459800.5, reference: E2022-S46
Mercury1.6317
Venus1.31747
Earth1.04058
Mars0.37929
Jupiter2.59363
Saturn6.88934
Uranus16.3983
Neptune27.5154

Observations

235 total observations over interval: 2003 10 21.34871 – 2024 01 03.287670
These data are available for download (format description).

Date (UT) J2000 RA J2000 Dec Magn Location Ref
2003 10 21.34871 02 02 16.24 +22 20 41.6 21.5 V 691 – Steward Observatory, Kitt Peak-Spacewatch MPS 286978
2003 10 21.37554 02 02 14.39 +22 20 36.1 21.0 V 691 – Steward Observatory, Kitt Peak-Spacewatch MPS 286978
2003 10 21.41433 02 02 11.72 +22 20 27.7 21.3 V 691 – Steward Observatory, Kitt Peak-Spacewatch MPS 286978
2006 08 21.39487 00 13 07.83 +05 08 05.9 21.1 V 691 – Steward Observatory, Kitt Peak-Spacewatch MPS 286978
2006 08 21.41222 00 13 07.23 +05 08 05.9 21.1 V 691 – Steward Observatory, Kitt Peak-Spacewatch MPS 286978
2006 08 21.42964 00 13 06.57 +05 08 05.9 21.4 V 691 – Steward Observatory, Kitt Peak-Spacewatch MPS 286978
2006 09 20.15791 23 46 47.67 +03 58 44.4   691 – Steward Observatory, Kitt Peak-Spacewatch MPS 286978
2006 09 20.17539 23 46 46.55 +03 58 39.6   691 – Steward Observatory, Kitt Peak-Spacewatch MPS 286978
2006 09 20.19280 23 46 45.40 +03 58 35.7   691 – Steward Observatory, Kitt Peak-Spacewatch MPS 286978
2006 10 13.19010 23 25 08.05 +02 20 25.2   291 – LPL/Spacewatch II MPS 183158
2006 10 13.19392 23 25 07.89 +02 20 24.0   291 – LPL/Spacewatch II MPS 183158
2006 10 13.19769 23 25 07.73 +02 20 23.3   291 – LPL/Spacewatch II MPS 183158
2006 10 15.13028 23 23 46.43 +02 13 17.0   291 – LPL/Spacewatch II MPS 183158
2006 10 15.13505 23 23 46.21 +02 13 15.8   291 – LPL/Spacewatch II MPS 183158
2006 10 15.13882 23 23 46.04 +02 13 15.0   291 – LPL/Spacewatch II MPS 183158
2008 02 08.23188 10 32 57.63 +09 27 56.8 20.0 V 691 – Steward Observatory, Kitt Peak-Spacewatch MPS 286978
2008 02 08.24947 10 32 56.57 +09 27 58.0 20.0 V 691 – Steward Observatory, Kitt Peak-Spacewatch MPS 286978
2008 02 08.26708 10 32 55.53 +09 27 59.0 19.9 V 691 – Steward Observatory, Kitt Peak-Spacewatch MPS 286978
2008 02 24.37862 10 15 34.23 +09 54 44.2 19.6 V G96 – Mt. Lemmon Survey MPS 286978
2008 02 24.38526 10 15 33.76 +09 54 44.8 19.6 V G96 – Mt. Lemmon Survey MPS 286978
2008 02 24.39193 10 15 33.30 +09 54 45.7 19.7 V G96 – Mt. Lemmon Survey MPS 286978
2008 02 24.39858 10 15 32.83 +09 54 46.3 19.4 V G96 – Mt. Lemmon Survey MPS 286978
2008 03 09.21611 10 00 58.86 +10 15 29.9 20.4 V G96 – Mt. Lemmon Survey MPS 286978
2008 03 09.22168 10 00 58.53 +10 15 30.3 20.1 V G96 – Mt. Lemmon Survey MPS 286978
2008 03 09.22722 10 00 58.17 +10 15 30.7 20.2 V G96 – Mt. Lemmon Survey MPS 286978
2008 03 09.23279 10 00 57.85 +10 15 30.8 20.1 V G96 – Mt. Lemmon Survey MPS 286978
2010 12 25.40123 07 05 34.76 +31 07 56.1 20.1 V G96 – Mt. Lemmon Survey MPS 363008
2010 12 25.40816 07 05 34.26 +31 07 56.2 20.1 V G96 – Mt. Lemmon Survey MPS 363008
2010 12 25.41502 07 05 33.75 +31 07 56.1 20.2 V G96 – Mt. Lemmon Survey MPS 363008
2010 12 25.42196 07 05 33.21 +31 07 56.5 19.9 V G96 – Mt. Lemmon Survey MPS 363008
2011 01 15.23014 06 39 09.36 +30 45 19.0 20.6 V G96 – Mt. Lemmon Survey MPS 367113
2011 01 15.23815 06 39 08.82 +30 45 17.8 20.3 V G96 – Mt. Lemmon Survey MPS 367113
2011 01 15.25439 06 39 07.63 +30 45 15.1 20.4 V G96 – Mt. Lemmon Survey MPS 367113
2012 06 14.45651 19 30 29.210 -30 07 37.10 20.8 w F51 – Pan-STARRS 1, Haleakala MPS 426507
2012 06 14.46805 19 30 28.569 -30 07 38.93 20.6 w F51 – Pan-STARRS 1, Haleakala MPS 426507
2012 06 14.47950 19 30 27.964 -30 07 39.70 21.0 w F51 – Pan-STARRS 1, Haleakala MPS 426507
2013 12 03.29962 03 18 58.189 +29 09 47.75 20.7 w F51 – Pan-STARRS 1, Haleakala MPS 489995
2013 12 03.31374 03 18 57.250 +29 09 43.21 20.6 w F51 – Pan-STARRS 1, Haleakala MPS 489995
2013 12 03.32788 03 18 56.314 +29 09 38.55 20.6 w F51 – Pan-STARRS 1, Haleakala MPS 489995
2015 05 26.37123 15 31 00.850 -30 46 40.77 19.8 i F51 – Pan-STARRS 1, Haleakala MPS 609791
2015 05 26.38185 15 31 00.106 -30 46 38.01 19.9 i F51 – Pan-STARRS 1, Haleakala MPS 609791
2015 05 26.39243 15 30 59.376 -30 46 34.96 20.0 i F51 – Pan-STARRS 1, Haleakala MPS 609791
2015 05 26.40303 15 30 58.642 -30 46 31.98 20.0 i F51 – Pan-STARRS 1, Haleakala MPS 609791
2015 05 29.37602 15 27 46.916 -30 32 04.36 20.0 i F51 – Pan-STARRS 1, Haleakala MPS 609791
2015 05 29.38661 15 27 46.207 -30 32 01.11 20.0 i F51 – Pan-STARRS 1, Haleakala MPS 609791
2015 05 29.39719 15 27 45.508 -30 31 57.89 19.9 i F51 – Pan-STARRS 1, Haleakala MPS 609791
2015 05 29.40821 15 27 44.766 -30 31 54.52 20.0 i F51 – Pan-STARRS 1, Haleakala MPS 609791
2015 06 22.38315 15 10 51.532 -28 18 12.72 20.6 i F51 – Pan-STARRS 1, Haleakala MPS 614110
2015 06 22.39350 15 10 51.333 -28 18 09.43 20.6 i F51 – Pan-STARRS 1, Haleakala MPS 614110
2015 06 22.40385 15 10 51.125 -28 18 06.02 20.7 i F51 – Pan-STARRS 1, Haleakala MPS 614110
2016 09 06.43529 01 34 28.95 +16 26 23.3 20.4 V G96 – Mt. Lemmon Survey MPS 729846
2016 09 06.44111 01 34 28.71 +16 26 24.5 20.8 V G96 – Mt. Lemmon Survey MPS 729846
2016 09 06.44692 01 34 28.60 +16 26 24.2 20.6 V G96 – Mt. Lemmon Survey MPS 729846
2016 09 06.45277 01 34 28.41 +16 26 24.9 21.0 V G96 – Mt. Lemmon Survey MPS 729846
2016 09 06.98569 01 34 15.34 +16 27 24.0 20.6   C95 – SATINO Remote Observatory, Haute Provence MPS 729846
2016 09 07.02381 01 34 14.37 +16 27 28.0 21.0   C95 – SATINO Remote Observatory, Haute Provence MPS 729846
2016 09 07.05641 01 34 13.55 +16 27 30.7 20.4   C95 – SATINO Remote Observatory, Haute Provence MPS 729846
2016 10 04.36137 01 12 42.36 +16 06 01.7 20.1 V G96 – Mt. Lemmon Survey MPS 734155
2016 10 04.36886 01 12 41.90 +16 05 59.0 20.6 V G96 – Mt. Lemmon Survey MPS 734155
2016 10 04.38367 01 12 40.77 +16 05 57.3 20.7 V G96 – Mt. Lemmon Survey MPS 734155
2016 10 05.27954 01 11 44.24 +16 02 52.2 20.5 G G45 – Space Surveillance Telescope, Atom Site MPS 1610282
2016 10 05.27977 01 11 44.12 +16 02 51.5 21.1 G G45 – Space Surveillance Telescope, Atom Site MPS 1610282
2016 10 05.31780 01 11 41.65 +16 02 43.7 20.9 G G45 – Space Surveillance Telescope, Atom Site MPS 1610282
2016 10 05.38642 01 11 37.10 +16 02 28.9 20.7 G G45 – Space Surveillance Telescope, Atom Site MPS 1610282
2016 10 05.45982 01 11 32.27 +16 02 11.8 21.0 G G45 – Space Surveillance Telescope, Atom Site MPS 1610282
2016 10 06.51817 01 10 24.472 +15 58 23.45 20.7 w F51 – Pan-STARRS 1, Haleakala MPS 734155
2016 10 06.53070 01 10 23.631 +15 58 20.54 20.6 w F51 – Pan-STARRS 1, Haleakala MPS 734155
2016 10 06.54319 01 10 22.812 +15 58 17.69 20.6 w F51 – Pan-STARRS 1, Haleakala MPS 734155
2016 10 06.55575 01 10 21.978 +15 58 14.84 20.6 w F51 – Pan-STARRS 1, Haleakala MPS 734155
2016 10 10.31334 01 06 18.26 +15 43 11.9 20.6 V G96 – Mt. Lemmon Survey MPS 736085
2016 10 10.31759 01 06 17.94 +15 43 10.8 20.4 V G96 – Mt. Lemmon Survey MPS 736085
2016 10 10.32178 01 06 17.74 +15 43 10.2 20.1 V G96 – Mt. Lemmon Survey MPS 736085
2016 10 10.32605 01 06 17.40 +15 43 08.7 20.3 V G96 – Mt. Lemmon Survey MPS 736085
2016 10 19.44129 00 56 30.187 +14 59 40.55 20.4 i F51 – Pan-STARRS 1, Haleakala MPS 737375
2016 10 19.45292 00 56 29.442 +14 59 36.92 20.5 i F51 – Pan-STARRS 1, Haleakala MPS 737375
2016 10 19.46462 00 56 28.688 +14 59 33.39 20.4 i F51 – Pan-STARRS 1, Haleakala MPS 737375
2016 10 20.21381 00 55 42.33 +14 55 39.1 19.9 V G96 – Mt. Lemmon Survey MPS 737375
2016 10 20.22233 00 55 41.88 +14 55 35.4 20.2 V G96 – Mt. Lemmon Survey MPS 737375
2016 10 20.22665 00 55 41.57 +14 55 34.9 21.0 V G96 – Mt. Lemmon Survey MPS 737375
2016 10 20.23093 00 55 41.29 +14 55 33.3 20.2 V G96 – Mt. Lemmon Survey MPS 737375
2016 10 23.07476 00 52 48.79 +14 40 31.6 20.9 G G45 – Space Surveillance Telescope, Atom Site MPS 1610282
2016 10 23.25909 00 52 37.48 +14 39 32.4 21.0 G G45 – Space Surveillance Telescope, Atom Site MPS 1610282
2016 10 23.30392 00 52 34.71 +14 39 17.8 20.8 G G45 – Space Surveillance Telescope, Atom Site MPS 1610282
2016 10 23.35401 00 52 31.63 +14 39 00.9 20.8 G G45 – Space Surveillance Telescope, Atom Site MPS 1610282
2016 10 26.41962 00 49 35.070 +14 22 32.98 20.8 w F51 – Pan-STARRS 1, Haleakala MPS 739585
2016 10 26.43065 00 49 34.424 +14 22 29.36 20.8 w F51 – Pan-STARRS 1, Haleakala MPS 739585
2016 10 26.44166 00 49 33.779 +14 22 25.71 20.8 w F51 – Pan-STARRS 1, Haleakala MPS 739585
2016 10 26.45265 00 49 33.143 +14 22 22.22 21.0 w F51 – Pan-STARRS 1, Haleakala MPS 739585
2018 02 11.55750 12 43 11.785 -08 33 51.35 20.6 w F51 – Pan-STARRS 1, Haleakala MPS 869919
2018 02 11.56934 12 43 11.741 -08 33 55.19 20.7 w F51 – Pan-STARRS 1, Haleakala MPS 869919
2018 02 11.58118 12 43 11.701 -08 33 58.90 20.6 w F51 – Pan-STARRS 1, Haleakala MPS 869919
2018 02 11.59302 12 43 11.660 -08 34 02.56 20.6 w F51 – Pan-STARRS 1, Haleakala MPS 869919
